Time,TemperatureF,DewpointF,PressureIn,WindDirection,WindDirectionDegrees,WindSpeedMPH,WindSpeedGustMPH,Humidity,HourlyPrecipIn,Conditions,Clouds,dailyrainin,SoftwareType,DateUTC
2013-05-11 00:00:00,54.6,48.9,30.03,WSW,256,0.0,3.0,81,0.00,,---,0.00,VWS V14.01,2013-05-11 05:00:00,
2013-05-11 00:01:00,54.6,48.9,30.03,West,260,1.0,1.0,81,0.00,,---,0.00,VWS V14.01,2013-05-11 05:01:00,
2013-05-11 00:06:00,54.5,48.8,30.03,SW,235,0.0,1.0,81,0.00,,---,0.00,VWS V14.01,2013-05-11 05:06:00,
2013-05-11 00:11:00,54.3,48.6,30.03,SW,232,0.0,1.0,81,0.00,,---,0.00,VWS V14.01,2013-05-11 05:11:00,
2013-05-11 00:16:00,54.1,48.7,30.03,SW,235,0.0,1.0,82,0.00,,---,0.00,VWS V14.01,2013-05-11 05:16:00,
2013-05-11 00:21:00,54.1,48.7,30.02,WSW,238,0.0,1.0,82,0.00,,---,0.00,VWS V14.01,2013-05-11 05:21:00,
2013-05-11 00:27:00,54.1,48.7,30.02,WSW,238,0.0,1.0,82,0.00,,---,0.00,VWS V14.01,2013-05-11 05:27:00,
2013-05-11 00:30:00,54.0,48.6,30.02,WSW,238,0.0,1.0,82,0.00,,---,0.00,VWS V14.01,2013-05-11 05:30:00,
2013-05-11 00:32:00,53.9,48.5,30.02,WSW,238,0.0,1.0,82,0.00,,---,0.00,VWS V14.01,2013-05-11 05:32:00,
2013-05-11 00:37:00,53.7,48.7,30.02,WSW,238,0.0,1.0,83,0.00,,---,0.00,VWS V14.01,2013-05-11 05:37:00,
2013-05-11 00:42:00,53.7,48.7,30.02,WSW,238,0.0,1.0,83,0.00,,---,0.00,VWS V14.01,2013-05-11 05:42:00,
2013-05-11 00:47:00,53.6,48.6,30.02,WSW,238,0.0,1.0,83,0.00,,---,0.00,VWS V14.01,2013-05-11 05:47:00,
2013-05-11 00:52:00,53.3,48.3,30.02,WSW,238,0.0,1.0,83,0.00,,---,0.00,VWS V14.01,2013-05-11 05:52:00,
2013-05-11 00:57:00,53.1,48.1,30.02,WSW,238,0.0,1.0,83,0.00,,---,0.00,VWS V14.01,2013-05-11 05:57:00,
2013-05-11 01:00:00,53.2,48.2,30.02,WSW,238,0.0,1.0,83,0.00,,---,0.00,VWS V14.01,2013-05-11 06:00:00,
2013-05-11 01:02:00,53.0,48.0,30.02,SW,218,0.0,1.0,83,0.00,,---,0.00,VWS V14.01,2013-05-11 06:02:00,
2013-05-11 01:07:00,53.0,48.0,30.02,WSW,256,0.0,2.0,83,0.00,,---,0.00,VWS V14.01,2013-05-11 06:07:00,
2013-05-11 01:12:00,53.0,47.7,30.01,WSW,239,1.0,3.0,82,0.00,,---,0.00,VWS V14.01,2013-05-11 06:12:00,
2013-05-11 01:18:00,52.9,47.6,30.01,WSW,258,0.0,3.0,82,0.00,,---,0.00,VWS V14.01,2013-05-11 06:18:00,
2013-05-11 01:23:00,53.0,47.7,30.01,West,259,1.0,3.0,82,0.00,,---,0.00,VWS V14.01,2013-05-11 06:23:00,
2013-05-11 01:28:00,53.1,47.8,30.01,West,259,1.0,3.0,82,0.00,,---,0.00,VWS V14.01,2013-05-11 06:28:00,
2013-05-11 01:30:00,53.1,47.8,30.01,West,259,1.0,3.0,82,0.00,,---,0.00,VWS V14.01,2013-05-11 06:30:00,
2013-05-11 01:33:00,53.1,47.8,30.01,WSW,255,1.0,2.0,82,0.00,,---,0.00,VWS V14.01,2013-05-11 06:33:00,
2013-05-11 01:38:00,52.9,47.6,30.01,WSW,256,1.0,2.0,82,0.00,,---,0.00,VWS V14.01,2013-05-11 06:38:00,
2013-05-11 01:43:00,52.8,47.5,30.01,WSW,249,1.0,2.0,82,0.00,,---,0.00,VWS V14.01,2013-05-11 06:43:00,
2013-05-11 01:48:00,52.6,47.6,30.01,West,266,1.0,3.0,83,0.00,,---,0.00,VWS V14.01,2013-05-11 06:48:00,
2013-05-11 01:53:00,52.4,47.4,30.01,West,259,1.0,3.0,83,0.00,,---,0.00,VWS V14.01,2013-05-11 06:53:00,
2013-05-11 01:58:00,52.2,47.5,30.01,West,262,1.0,3.0,84,0.00,,---,0.00,VWS V14.01,2013-05-11 06:58:00,
2013-05-11 02:00:00,52.2,47.5,30.01,West,262,1.0,3.0,84,0.00,,---,0.00,VWS V14.01,2013-05-11 07:00:00,
2013-05-11 02:03:00,52.0,47.3,30.00,West,263,1.0,2.0,84,0.00,,---,0.00,VWS V14.01,2013-05-11 07:03:00,
2013-05-11 02:08:00,51.9,47.2,30.00,West,263,0.0,2.0,84,0.00,,---,0.00,VWS V14.01,2013-05-11 07:08:00,
2013-05-11 02:13:00,51.8,47.1,30.00,WSW,257,0.0,2.0,84,0.00,,---,0.00,VWS V14.01,2013-05-11 07:13:00,
2013-05-11 02:19:00,51.7,47.0,30.00,West,262,1.0,2.0,84,0.00,,---,0.00,VWS V14.01,2013-05-11 07:19:00,
2013-05-11 02:24:00,51.8,47.1,29.99,West,259,0.0,2.0,84,0.00,,---,0.00,VWS V14.01,2013-05-11 07:24:00,
2013-05-11 02:29:00,51.7,47.0,29.99,West,267,0.0,2.0,84,0.00,,---,0.00,VWS V14.01,2013-05-11 07:29:00,
2013-05-11 02:30:00,51.7,47.0,30.00,West,267,0.0,2.0,84,0.00,,---,0.00,VWS V14.01,2013-05-11 07:30:00,
2013-05-11 02:34:00,51.6,46.9,30.00,WSW,249,0.0,2.0,84,0.00,,---,0.00,VWS V14.01,2013-05-11 07:34:00,
2013-05-11 02:39:00,51.5,46.8,29.99,SW,231,1.0,2.0,84,0.00,,---,0.00,VWS V14.01,2013-05-11 07:39:00,
2013-05-11 02:44:00,51.3,46.6,29.99,WSW,243,1.0,2.0,84,0.00,,---,0.00,VWS V14.01,2013-05-11 07:44:00,
2013-05-11 02:49:00,51.2,46.8,29.99,WNW,293,2.0,2.0,85,0.00,,---,0.00,VWS V14.01,2013-05-11 07:49:00,
2013-05-11 02:54:00,51.0,46.7,30.00,West,264,1.0,2.0,85,0.00,,---,0.00,VWS V14.01,2013-05-11 07:54:00,
2013-05-11 02:59:00,51.0,46.7,29.99,WSW,246,1.0,1.0,85,0.00,,---,0.00,VWS V14.01,2013-05-11 07:59:00,
2013-05-11 03:00:00,51.0,46.7,29.99,SSW,195,1.0,2.0,85,0.00,,---,0.00,VWS V14.01,2013-05-11 08:00:00,
2013-05-11 03:04:00,51.0,46.7,29.99,WSW,243,0.0,1.0,85,0.00,,---,0.00,VWS V14.01,2013-05-11 08:04:00,
2013-05-11 03:10:00,50.8,46.5,29.99,West,262,0.0,1.0,85,0.00,,---,0.00,VWS V14.01,2013-05-11 08:10:00,
2013-05-11 03:15:00,50.9,46.6,29.99,SW,222,2.0,3.0,85,0.00,,---,0.00,VWS V14.01,2013-05-11 08:15:00,
2013-05-11 03:20:00,51.0,46.3,30.00,WSW,254,1.0,3.0,84,0.00,,---,0.00,VWS V14.01,2013-05-11 08:20:00,
2013-05-11 03:25:00,50.9,46.2,30.00,West,261,2.0,3.0,84,0.00,,---,0.00,VWS V14.01,2013-05-11 08:25:00,
2013-05-11 03:30:00,50.7,46.4,30.00,SW,224,1.0,2.0,85,0.00,,---,0.00,VWS V14.01,2013-05-11 08:30:00,
2013-05-11 03:35:00,50.6,46.3,29.99,SW,228,0.0,2.0,85,0.00,,---,0.00,VWS V14.01,2013-05-11 08:35:00,
2013-05-11 03:40:00,50.6,46.3,30.00,West,263,2.0,2.0,85,0.00,,---,0.00,VWS V14.01,2013-05-11 08:40:00,
2013-05-11 03:45:00,50.8,46.2,30.01,WSW,249,2.0,6.0,84,0.00,,---,0.00,VWS V14.01,2013-05-11 08:45:00,
2013-05-11 03:50:00,51.1,46.1,30.02,West,273,1.0,6.0,83,0.00,,---,0.00,VWS V14.01,2013-05-11 08:50:00,
2013-05-11 03:55:00,51.6,46.3,30.02,West,269,2.0,6.0,82,0.00,,---,0.00,VWS V14.01,2013-05-11 08:55:00,
2013-05-11 04:00:00,52.1,46.5,30.02,WSW,253,6.0,7.0,81,0.00,,---,0.00,VWS V14.01,2013-05-11 09:00:00,
2013-05-11 04:06:00,52.4,46.4,30.02,WNW,288,5.0,9.0,80,0.00,,---,0.00,VWS V14.01,2013-05-11 09:06:00,
2013-05-11 04:11:00,52.8,46.5,30.02,WNW,283,4.0,10.0,79,0.00,,---,0.00,VWS V14.01,2013-05-11 09:11:00,
2013-05-11 04:16:00,52.9,46.6,30.02,WNW,288,2.0,10.0,79,0.00,,---,0.00,VWS V14.01,2013-05-11 09:16:00,
2013-05-11 04:21:00,53.0,46.3,30.03,NW,319,2.0,10.0,78,0.00,,---,0.00,VWS V14.01,2013-05-11 09:21:00,
2013-05-11 04:26:00,53.1,46.4,30.03,WSW,252,4.0,10.0,78,0.00,,---,0.00,VWS V14.01,2013-05-11 09:26:00,
2013-05-11 04:30:00,53.3,46.3,30.03,WNW,301,3.0,10.0,77,0.00,,---,0.00,VWS V14.01,2013-05-11 09:30:00,
2013-05-11 04:31:00,53.3,46.3,30.03,West,269,4.0,5.0,77,0.00,,---,0.00,VWS V14.01,2013-05-11 09:31:00,
2013-05-11 04:36:00,53.1,46.4,30.04,West,272,5.0,11.0,78,0.00,,---,0.00,VWS V14.01,2013-05-11 09:36:00,
2013-05-11 04:41:00,53.4,46.0,30.04,West,259,3.0,11.0,76,0.00,,---,0.00,VWS V14.01,2013-05-11 09:41:00,
2013-05-11 04:46:00,53.6,45.2,30.05,NW,322,4.0,11.0,73,0.00,,---,0.00,VWS V14.01,2013-05-11 09:46:00,
2013-05-11 04:51:00,53.7,44.9,30.05,West,261,2.0,16.0,72,0.00,,---,0.00,VWS V14.01,2013-05-11 09:51:00,
2013-05-11 04:57:00,53.6,44.4,30.05,NNW,340,1.0,16.0,71,0.00,,---,0.00,VWS V14.01,2013-05-11 09:57:00,
2013-05-11 05:00:00,53.4,44.2,30.05,NW,307,8.0,16.0,71,0.00,,---,0.00,VWS V14.01,2013-05-11 10:00:00,
2013-05-11 05:02:00,53.4,43.9,30.05,WNW,302,4.0,10.0,70,0.00,,---,0.00,VWS V14.01,2013-05-11 10:02:00,
2013-05-11 05:07:00,53.2,44.0,30.05,WSW,248,6.0,10.0,71,0.00,,---,0.00,VWS V14.01,2013-05-11 10:07:00,
2013-05-11 05:12:00,53.0,43.5,30.05,NNW,331,9.0,12.0,70,0.00,,---,0.00,VWS V14.01,2013-05-11 10:12:00,
2013-05-11 05:17:00,52.8,43.3,30.06,WNW,288,4.0,12.0,70,0.00,,---,0.00,VWS V14.01,2013-05-11 10:17:00,
2013-05-11 05:22:00,52.6,42.7,30.06,NW,324,3.0,12.0,69,0.00,,---,0.00,VWS V14.01,2013-05-11 10:22:00,
2013-05-11 05:27:00,52.4,42.2,30.06,WNW,290,3.0,12.0,68,0.00,,---,0.00,VWS V14.01,2013-05-11 10:27:00,
2013-05-11 05:30:00,52.3,41.7,30.06,WNW,302,4.0,12.0,67,0.00,,---,0.00,VWS V14.01,2013-05-11 10:30:00,
2013-05-11 05:32:00,52.2,41.6,30.06,NW,305,3.0,9.0,67,0.00,,---,0.00,VWS V14.01,2013-05-11 10:32:00,
2013-05-11 05:37:00,52.1,41.1,30.07,West,274,3.0,12.0,66,0.00,,---,0.00,VWS V14.01,2013-05-11 10:37:00,
2013-05-11 05:42:00,51.9,40.1,30.07,NW,316,6.0,15.0,64,0.00,,---,0.00,VWS V14.01,2013-05-11 10:42:00,
2013-05-11 05:47:00,51.5,40.1,30.08,NNW,339,3.0,15.0,65,0.00,,---,0.00,VWS V14.01,2013-05-11 10:47:00,
2013-05-11 05:52:00,51.1,40.2,30.08,West,270,3.0,15.0,66,0.00,,---,0.00,VWS V14.01,2013-05-11 10:52:00,
2013-05-11 05:58:00,50.7,39.8,30.08,WNW,293,2.0,15.0,66,0.00,,---,0.00,VWS V14.01,2013-05-11 10:58:00,
2013-05-11 06:00:00,50.6,39.7,30.08,WSW,249,9.0,15.0,66,0.00,,---,0.00,VWS V14.01,2013-05-11 11:00:00,
2013-05-11 06:03:00,50.4,39.5,30.08,NW,315,6.0,11.0,66,0.00,,---,0.00,VWS V14.01,2013-05-11 11:03:00,
2013-05-11 06:08:00,50.1,39.2,30.09,NW,311,2.0,13.0,66,0.00,,---,0.00,VWS V14.01,2013-05-11 11:08:00,
2013-05-11 06:13:00,49.7,38.8,30.09,NNW,335,6.0,14.0,66,0.00,,---,0.00,VWS V14.01,2013-05-11 11:13:00,
2013-05-11 06:18:00,49.4,38.9,30.09,North,1,7.0,14.0,67,0.00,,---,0.00,VWS V14.01,2013-05-11 11:18:00,
2013-05-11 06:23:00,49.1,38.2,30.09,NNW,343,3.0,14.0,66,0.00,,---,0.00,VWS V14.01,2013-05-11 11:23:00,
2013-05-11 06:28:00,49.0,38.2,30.10,NW,308,5.0,14.0,66,0.00,,---,0.00,VWS V14.01,2013-05-11 11:28:00,
2013-05-11 06:30:00,49.0,38.2,30.10,NW,317,2.0,14.0,66,0.00,,---,0.00,VWS V14.01,2013-05-11 11:30:00,
2013-05-11 06:33:00,48.8,38.0,30.10,NW,311,2.0,14.0,66,0.00,,---,0.00,VWS V14.01,2013-05-11 11:33:00,
2013-05-11 06:38:00,48.7,37.5,30.10,NW,313,4.0,14.0,65,0.00,,---,0.00,VWS V14.01,2013-05-11 11:38:00,
2013-05-11 06:43:00,48.8,38.0,30.11,WNW,295,1.0,14.0,66,0.00,,---,0.00,VWS V14.01,2013-05-11 11:43:00,
2013-05-11 06:49:00,48.7,37.9,30.12,WNW,300,3.0,14.0,66,0.00,,---,0.00,VWS V14.01,2013-05-11 11:49:00,
2013-05-11 06:54:00,48.6,37.4,30.12,NNW,342,9.0,14.0,65,0.00,,---,0.00,VWS V14.01,2013-05-11 11:54:00,
2013-05-11 06:59:00,48.7,37.5,30.12,WSW,245,5.0,14.0,65,0.00,,---,0.00,VWS V14.01,2013-05-11 11:59:00,
2013-05-11 07:00:00,48.7,37.5,30.12,NNW,345,12.0,14.0,65,0.00,,---,0.00,VWS V14.01,2013-05-11 12:00:00,
2013-05-11 07:04:00,48.8,37.2,30.12,NW,319,3.0,13.0,64,0.00,,---,0.00,VWS V14.01,2013-05-11 12:04:00,
2013-05-11 07:09:00,48.9,37.3,30.12,NW,322,5.0,13.0,64,0.00,,---,0.00,VWS V14.01,2013-05-11 12:09:00,
2013-05-11 07:14:00,49.0,37.4,30.12,WNW,297,5.0,13.0,64,0.00,,---,0.00,VWS V14.01,2013-05-11 12:14:00,
2013-05-11 07:19:00,49.1,37.5,30.12,WNW,285,3.0,13.0,64,0.00,,---,0.00,VWS V14.01,2013-05-11 12:19:00,
2013-05-11 07:24:00,49.2,37.2,30.13,West,276,1.0,13.0,63,0.00,,---,0.00,VWS V14.01,2013-05-11 12:24:00,
2013-05-11 07:29:00,49.3,36.8,30.13,WNW,297,3.0,4.0,62,0.00,,---,0.00,VWS V14.01,2013-05-11 12:29:00,
2013-05-11 07:30:00,49.3,36.8,30.13,NW,304,4.0,13.0,62,0.00,,---,0.00,VWS V14.01,2013-05-11 12:30:00,
2013-05-11 07:34:00,49.4,36.1,30.13,West,263,4.0,15.0,60,0.00,,---,0.00,VWS V14.01,2013-05-11 12:34:00,
2013-05-11 07:39:00,49.5,36.2,30.13,ENE,78,9.0,15.0,60,0.00,,---,0.00,VWS V14.01,2013-05-11 12:39:00,
2013-05-11 07:44:00,49.7,36.4,30.14,North,357,2.0,15.0,60,0.00,,---,0.00,VWS V14.01,2013-05-11 12:44:00,
2013-05-11 07:50:00,50.0,35.8,30.14,NNW,327,5.0,15.0,58,0.00,,---,0.00,VWS V14.01,2013-05-11 12:50:00,
2013-05-11 07:55:00,50.2,34.7,30.14,WNW,302,7.0,15.0,55,0.00,,---,0.00,VWS V14.01,2013-05-11 12:55:00,
2013-05-11 08:00:00,50.4,34.4,30.14,NW,309,4.0,10.0,54,0.00,,---,0.00,VWS V14.01,2013-05-11 13:00:00,
2013-05-11 08:05:00,50.7,33.7,30.14,WNW,302,3.0,13.0,52,0.00,,---,0.00,VWS V14.01,2013-05-11 13:05:00,
2013-05-11 08:10:00,51.0,33.0,30.14,WNW,297,11.0,16.0,50,0.00,,---,0.00,VWS V14.01,2013-05-11 13:10:00,
2013-05-11 08:15:00,51.1,33.1,30.14,NW,312,3.0,18.0,50,0.00,,---,0.00,VWS V14.01,2013-05-11 13:15:00,
2013-05-11 08:20:00,51.3,33.3,30.14,West,264,4.0,18.0,50,0.00,,---,0.00,VWS V14.01,2013-05-11 13:20:00,
2013-05-11 08:25:00,51.4,33.9,30.15,WNW,297,10.0,20.0,51,0.00,,---,0.00,VWS V14.01,2013-05-11 13:25:00,
2013-05-11 08:30:00,51.2,32.7,30.14,North,9,21.0,21.0,49,0.00,,---,0.00,VWS V14.01,2013-05-11 13:30:00,
2013-05-11 08:35:00,51.2,33.7,30.15,NNE,19,4.0,21.0,51,0.00,,---,0.00,VWS V14.01,2013-05-11 13:35:00,
2013-05-11 08:40:00,51.5,32.5,30.16,WNW,297,11.0,21.0,48,0.00,,---,0.00,VWS V14.01,2013-05-11 13:40:00,
2013-05-11 08:45:00,51.7,32.7,30.16,NW,319,10.0,21.0,48,0.00,,---,0.00,VWS V14.01,2013-05-11 13:45:00,
2013-05-11 08:50:00,51.6,32.0,30.16,WNW,293,6.0,21.0,47,0.00,,---,0.00,VWS V14.01,2013-05-11 13:50:00,
2013-05-11 08:55:00,51.6,33.1,30.16,NW,321,5.0,21.0,49,0.00,,---,0.00,VWS V14.01,2013-05-11 13:55:00,
2013-05-11 09:00:00,51.8,32.8,30.16,NW,305,3.0,21.0,48,0.00,,---,0.00,VWS V14.01,2013-05-11 14:00:00,
2013-05-11 09:01:00,51.9,32.3,30.16,North,350,4.0,15.0,47,0.00,,---,0.00,VWS V14.01,2013-05-11 14:01:00,
2013-05-11 09:06:00,52.1,32.0,30.16,NW,325,10.0,18.0,46,0.00,,---,0.00,VWS V14.01,2013-05-11 14:06:00,
2013-05-11 09:11:00,52.4,31.7,30.16,WNW,297,5.0,18.0,45,0.00,,---,0.00,VWS V14.01,2013-05-11 14:11:00,
2013-05-11 09:16:00,52.5,31.8,30.17,West,266,4.0,20.0,45,0.00,,---,0.00,VWS V14.01,2013-05-11 14:16:00,
2013-05-11 09:21:00,52.6,31.9,30.17,North,6,9.0,21.0,45,0.00,,---,0.00,VWS V14.01,2013-05-11 14:21:00,
2013-05-11 09:26:00,52.7,32.0,30.17,East,83,6.0,22.0,45,0.00,,---,0.00,VWS V14.01,2013-05-11 14:26:00,
2013-05-11 09:30:00,52.8,31.5,30.17,NNW,328,24.0,24.0,44,0.00,,---,0.00,VWS V14.01,2013-05-11 14:30:00,
2013-05-11 09:31:00,52.7,31.4,30.17,WNW,284,10.0,26.0,44,0.00,,---,0.00,VWS V14.01,2013-05-11 14:31:00,
2013-05-11 09:36:00,53.0,31.7,30.17,WSW,240,6.0,26.0,44,0.00,,---,0.00,VWS V14.01,2013-05-11 14:36:00,
2013-05-11 09:41:00,53.5,32.1,30.17,WSW,250,3.0,26.0,44,0.00,,---,0.00,VWS V14.01,2013-05-11 14:41:00,
2013-05-11 09:46:00,53.8,31.3,30.17,SSW,211,4.0,26.0,42,0.00,,---,0.00,VWS V14.01,2013-05-11 14:46:00,
2013-05-11 09:52:00,54.0,31.5,30.17,WNW,290,5.0,26.0,42,0.00,,---,0.00,VWS V14.01,2013-05-11 14:52:00,
2013-05-11 09:57:00,53.8,30.7,30.17,North,349,11.0,26.0,41,0.00,,---,0.00,VWS V14.01,2013-05-11 14:57:00,
2013-05-11 10:00:00,53.9,31.4,30.17,West,260,8.0,26.0,42,0.00,,---,0.00,VWS V14.01,2013-05-11 15:00:00,
2013-05-11 10:02:00,53.7,30.0,30.18,West,266,12.0,22.0,40,0.00,,---,0.00,VWS V14.01,2013-05-11 15:02:00,
2013-05-11 10:07:00,53.6,31.1,30.18,WNW,284,6.0,22.0,42,0.00,,---,0.00,VWS V14.01,2013-05-11 15:07:00,
2013-05-11 10:12:00,53.5,29.8,30.18,North,6,7.0,22.0,40,0.00,,---,0.00,VWS V14.01,2013-05-11 15:12:00,
2013-05-11 10:17:00,53.6,31.1,30.17,West,267,3.0,22.0,42,0.00,,---,0.00,VWS V14.01,2013-05-11 15:17:00,
2013-05-11 10:22:00,54.1,30.3,30.17,WNW,293,4.0,22.0,40,0.00,,---,0.00,VWS V14.01,2013-05-11 15:22:00,
2013-05-11 10:27:00,54.0,31.5,30.18,WNW,290,8.0,22.0,42,0.00,,---,0.00,VWS V14.01,2013-05-11 15:27:00,
2013-05-11 10:30:00,54.0,32.0,30.17,NNE,13,2.0,22.0,43,0.00,,---,0.00,VWS V14.01,2013-05-11 15:30:00,
2013-05-11 10:32:00,54.3,32.9,30.17,North,4,3.0,11.0,44,0.00,,---,0.00,VWS V14.01,2013-05-11 15:32:00,
2013-05-11 10:37:00,54.8,33.3,30.18,WNW,295,13.0,17.0,44,0.00,,---,0.00,VWS V14.01,2013-05-11 15:37:00,
2013-05-11 10:42:00,54.4,31.2,30.18,WNW,287,4.0,20.0,41,0.00,,---,0.00,VWS V14.01,2013-05-11 15:42:00,
2013-05-11 10:47:00,53.8,30.1,30.18,North,359,16.0,20.0,40,0.00,,---,0.00,VWS V14.01,2013-05-11 15:47:00,
2013-05-11 10:52:00,53.8,30.1,30.18,NW,314,2.0,25.0,40,0.00,,---,0.00,VWS V14.01,2013-05-11 15:52:00,
2013-05-11 10:58:00,54.0,29.6,30.18,WNW,282,5.0,25.0,39,0.00,,---,0.00,VWS V14.01,2013-05-11 15:58:00,
2013-05-11 11:00:00,53.8,29.4,30.18,NNE,12,5.0,25.0,39,0.00,,---,0.00,VWS V14.01,2013-05-11 16:00:00,
2013-05-11 11:03:00,53.9,30.1,30.18,WNW,297,11.0,13.0,40,0.00,,---,0.00,VWS V14.01,2013-05-11 16:03:00,
2013-05-11 11:08:00,53.9,29.5,30.19,NNE,33,4.0,21.0,39,0.00,,---,0.00,VWS V14.01,2013-05-11 16:08:00,
2013-05-11 11:13:00,54.1,31.5,30.18,NNW,348,2.0,21.0,42,0.00,,---,0.00,VWS V14.01,2013-05-11 16:13:00,
2013-05-11 11:18:00,54.3,30.5,30.18,WNW,297,14.0,25.0,40,0.00,,---,0.00,VWS V14.01,2013-05-11 16:18:00,
2013-05-11 11:23:00,54.0,30.2,30.18,NW,305,4.0,30.0,40,0.00,,---,0.00,VWS V14.01,2013-05-11 16:23:00,
2013-05-11 11:28:00,54.2,31.0,30.18,NW,315,8.0,30.0,41,0.00,,---,0.00,VWS V14.01,2013-05-11 16:28:00,
2013-05-11 11:30:00,54.2,31.0,30.18,WSW,242,6.0,30.0,41,0.00,,---,0.00,VWS V14.01,2013-05-11 16:30:00,
2013-05-11 11:33:00,54.8,32.2,30.18,West,281,4.0,13.0,42,0.00,,---,0.00,VWS V14.01,2013-05-11 16:33:00,
2013-05-11 11:38:00,55.0,31.1,30.18,NW,324,10.0,18.0,40,0.00,,---,0.00,VWS V14.01,2013-05-11 16:38:00,
2013-05-11 11:43:00,54.7,30.2,30.18,WNW,282,11.0,19.0,39,0.00,,---,0.00,VWS V14.01,2013-05-11 16:43:00,
2013-05-11 11:49:00,54.7,29.0,30.18,West,267,4.0,20.0,37,0.00,,---,0.00,VWS V14.01,2013-05-11 16:49:00,
2013-05-11 11:54:00,54.6,29.5,30.19,NNW,343,7.0,23.0,38,0.00,,---,0.00,VWS V14.01,2013-05-11 16:54:00,
2013-05-11 11:59:00,54.5,29.4,30.19,NW,308,6.0,23.0,38,0.00,,---,0.00,VWS V14.01,2013-05-11 16:59:00,
2013-05-11 12:00:00,54.4,29.3,30.19,NW,313,7.0,23.0,38,0.00,,---,0.00,VWS V14.01,2013-05-11 17:00:00,
2013-05-11 12:04:00,55.0,31.8,30.19,West,260,13.0,16.0,41,0.00,,---,0.00,VWS V14.01,2013-05-11 17:04:00,
2013-05-11 12:09:00,55.1,31.2,30.19,WNW,293,6.0,18.0,40,0.00,,---,0.00,VWS V14.01,2013-05-11 17:09:00,
2013-05-11 12:14:00,55.1,28.6,30.20,WSW,256,9.0,32.0,36,0.00,,---,0.00,VWS V14.01,2013-05-11 17:14:00,
2013-05-11 12:19:00,54.9,29.8,30.20,NNW,330,14.0,32.0,38,0.00,,---,0.00,VWS V14.01,2013-05-11 17:19:00,
2013-05-11 12:24:00,55.1,30.0,30.20,North,356,8.0,32.0,38,0.00,,---,0.00,VWS V14.01,2013-05-11 17:24:00,
2013-05-11 12:29:00,55.5,29.7,30.20,West,276,11.0,11.0,37,0.00,,---,0.00,VWS V14.01,2013-05-11 17:29:00,
2013-05-11 12:30:00,55.5,29.7,30.20,NNW,346,6.0,32.0,37,0.00,,---,0.00,VWS V14.01,2013-05-11 17:30:00,
2013-05-11 12:34:00,55.4,28.9,30.19,WNW,293,12.0,20.0,36,0.00,,---,0.00,VWS V14.01,2013-05-11 17:34:00,
2013-05-11 12:39:00,55.4,28.9,30.19,NNE,26,10.0,23.0,36,0.00,,---,0.00,VWS V14.01,2013-05-11 17:39:00,
2013-05-11 12:45:00,55.2,29.4,30.19,WSW,255,4.0,23.0,37,0.00,,---,0.00,VWS V14.01,2013-05-11 17:45:00,
2013-05-11 12:50:00,55.4,28.9,30.19,North,349,6.0,24.0,36,0.00,,---,0.00,VWS V14.01,2013-05-11 17:50:00,
2013-05-11 12:55:00,56.0,30.8,30.20,WNW,295,10.0,24.0,38,0.00,,---,0.00,VWS V14.01,2013-05-11 17:55:00,
2013-05-11 13:00:00,55.5,29.7,30.18,NW,322,8.0,16.0,37,0.00,,---,0.00,VWS V14.01,2013-05-11 18:00:00,
2013-05-11 13:05:00,55.7,30.5,30.19,North,349,10.0,21.0,38,0.00,,---,0.00,VWS V14.01,2013-05-11 18:05:00,
2013-05-11 13:10:00,55.4,28.9,30.19,NNE,28,4.0,21.0,36,0.00,,---,0.00,VWS V14.01,2013-05-11 18:10:00,
2013-05-11 13:15:00,55.1,29.3,30.20,WNW,290,7.0,24.0,37,0.00,,---,0.00,VWS V14.01,2013-05-11 18:15:00,
2013-05-11 13:20:00,54.6,29.5,30.19,WNW,285,4.0,24.0,38,0.00,,---,0.00,VWS V14.01,2013-05-11 18:20:00,
2013-05-11 13:25:00,55.2,31.3,30.20,West,274,6.0,24.0,40,0.00,,---,0.00,VWS V14.01,2013-05-11 18:25:00,
2013-05-11 13:30:00,55.4,29.6,30.19,WNW,295,2.0,11.0,37,0.00,,---,0.00,VWS V14.01,2013-05-11 18:30:00,
2013-05-11 13:35:00,55.4,29.6,30.20,WNW,300,11.0,18.0,37,0.00,,---,0.00,VWS V14.01,2013-05-11 18:35:00,
2013-05-11 13:41:00,55.0,28.6,30.20,North,359,15.0,19.0,36,0.00,,---,0.00,VWS V14.01,2013-05-11 18:41:00,
2013-05-11 13:46:00,54.6,28.2,30.20,West,269,11.0,25.0,36,0.00,,---,0.00,VWS V14.01,2013-05-11 18:46:00,
2013-05-11 13:51:00,55.2,29.4,30.20,NNW,330,6.0,25.0,37,0.00,,---,0.00,VWS V14.01,2013-05-11 18:51:00,
2013-05-11 13:56:00,55.0,28.6,30.20,WSW,257,6.0,25.0,36,0.00,,---,0.00,VWS V14.01,2013-05-11 18:56:00,
2013-05-11 14:00:00,55.0,29.2,30.20,NNW,336,12.0,25.0,37,0.00,,---,0.00,VWS V14.01,2013-05-11 19:00:00,
2013-05-11 14:01:00,55.1,29.3,30.20,West,267,8.0,20.0,37,0.00,,---,0.00,VWS V14.01,2013-05-11 19:01:00,
2013-05-11 14:06:00,55.5,30.3,30.20,WNW,288,6.0,20.0,38,0.00,,---,0.00,VWS V14.01,2013-05-11 19:06:00,
2013-05-11 14:11:00,55.3,28.8,30.20,West,278,11.0,20.0,36,0.00,,---,0.00,VWS V14.01,2013-05-11 19:11:00,
2013-05-11 14:16:00,55.2,28.0,30.20,NW,308,12.0,20.0,35,0.00,,---,0.00,VWS V14.01,2013-05-11 19:16:00,
2013-05-11 14:21:00,55.2,28.0,30.20,NW,324,7.0,20.0,35,0.00,,---,0.00,VWS V14.01,2013-05-11 19:21:00,
2013-05-11 14:26:00,55.8,29.9,30.20,NW,312,19.0,20.0,37,0.00,,---,0.00,VWS V14.01,2013-05-11 19:26:00,
2013-05-11 14:30:00,55.9,29.4,30.20,West,260,4.0,20.0,36,0.00,,---,0.00,VWS V14.01,2013-05-11 19:30:00,
2013-05-11 14:32:00,55.8,29.3,30.20,NW,307,7.0,16.0,36,0.00,,---,0.00,VWS V14.01,2013-05-11 19:32:00,
2013-05-11 14:37:00,56.4,29.8,30.20,NW,324,5.0,17.0,36,0.00,,---,0.00,VWS V14.01,2013-05-11 19:37:00,
2013-05-11 14:42:00,56.4,29.8,30.20,NW,309,8.0,17.0,36,0.00,,---,0.00,VWS V14.01,2013-05-11 19:42:00,
2013-05-11 14:47:00,56.2,27.5,30.20,WSW,257,9.0,23.0,33,0.00,,---,0.00,VWS V14.01,2013-05-11 19:47:00,
2013-05-11 14:52:00,55.9,26.5,30.20,WNW,294,5.0,23.0,32,0.00,,---,0.00,VWS V14.01,2013-05-11 19:52:00,
2013-05-11 14:57:00,55.8,27.1,30.20,North,360,10.0,23.0,33,0.00,,---,0.00,VWS V14.01,2013-05-11 19:57:00,
2013-05-11 15:00:00,55.7,27.8,30.20,WSW,252,6.0,23.0,34,0.00,,---,0.00,VWS V14.01,2013-05-11 20:00:00,
2013-05-11 15:02:00,56.1,28.1,30.20,NNW,330,17.0,17.0,34,0.00,,---,0.00,VWS V14.01,2013-05-11 20:02:00,
2013-05-11 15:07:00,56.0,25.8,30.20,NNE,31,6.0,17.0,31,0.00,,---,0.00,VWS V14.01,2013-05-11 20:07:00,
2013-05-11 15:12:00,55.9,27.2,30.20,NNW,342,12.0,17.0,33,0.00,,---,0.00,VWS V14.01,2013-05-11 20:12:00,
2013-05-11 15:18:00,56.3,27.6,30.20,WNW,283,5.0,17.0,33,0.00,,---,0.00,VWS V14.01,2013-05-11 20:18:00,
2013-05-11 15:23:00,56.9,27.4,30.21,West,270,6.0,20.0,32,0.00,,---,0.00,VWS V14.01,2013-05-11 20:23:00,
2013-05-11 15:28:00,56.4,25.4,30.20,NNW,332,6.0,20.0,30,0.00,,---,0.00,VWS V14.01,2013-05-11 20:28:00,
2013-05-11 15:30:00,56.3,25.3,30.20,NW,324,9.0,20.0,30,0.00,,---,0.00,VWS V14.01,2013-05-11 20:30:00,
2013-05-11 15:33:00,56.3,27.6,30.20,SE,145,10.0,14.0,33,0.00,,---,0.00,VWS V14.01,2013-05-11 20:33:00,
2013-05-11 15:38:00,56.9,28.1,30.20,NNW,342,3.0,14.0,33,0.00,,---,0.00,VWS V14.01,2013-05-11 20:38:00,
2013-05-11 15:43:00,56.7,26.4,30.20,NW,312,22.0,22.0,31,0.00,,---,0.00,VWS V14.01,2013-05-11 20:43:00,
2013-05-11 15:48:00,56.4,26.2,30.20,WNW,300,8.0,22.0,31,0.00,,---,0.00,VWS V14.01,2013-05-11 20:48:00,
2013-05-11 15:53:00,56.2,25.2,30.20,North,8,5.0,22.0,30,0.00,,---,0.00,VWS V14.01,2013-05-11 20:53:00,
2013-05-11 15:58:00,56.5,24.6,30.20,NW,307,2.0,22.0,29,0.00,,---,0.00,VWS V14.01,2013-05-11 20:58:00,
2013-05-11 16:00:00,56.5,26.2,30.20,WNW,284,4.0,22.0,31,0.00,,---,0.00,VWS V14.01,2013-05-11 21:00:00,
2013-05-11 16:03:00,56.6,23.9,30.20,WNW,285,14.0,19.0,28,0.00,,---,0.00,VWS V14.01,2013-05-11 21:03:00,
2013-05-11 16:08:00,56.5,26.2,30.20,WNW,287,9.0,19.0,31,0.00,,---,0.00,VWS V14.01,2013-05-11 21:08:00,
2013-05-11 16:14:00,56.3,24.5,30.20,NNW,347,9.0,19.0,29,0.00,,---,0.00,VWS V14.01,2013-05-11 21:14:00,
2013-05-11 16:18:00,56.4,26.2,30.20,West,276,3.0,19.0,31,0.00,,---,0.00,VWS V14.01,2013-05-11 21:18:00,
2013-05-11 16:24:00,56.2,24.4,30.19,North,349,7.0,21.0,29,0.00,,---,0.00,VWS V14.01,2013-05-11 21:24:00,
2013-05-11 16:29:00,55.9,24.9,30.19,NW,305,5.0,21.0,30,0.00,,---,0.00,VWS V14.01,2013-05-11 21:29:00,
2013-05-11 16:30:00,55.9,24.9,30.19,West,281,4.0,21.0,30,0.00,,---,0.00,VWS V14.01,2013-05-11 21:30:00,
2013-05-11 16:34:00,56.2,26.0,30.20,NNE,12,9.0,14.0,31,0.00,,---,0.00,VWS V14.01,2013-05-11 21:34:00,
2013-05-11 16:39:00,56.5,25.5,30.19,NNW,339,3.0,15.0,30,0.00,,---,0.00,VWS V14.01,2013-05-11 21:39:00,
2013-05-11 16:44:00,56.2,24.4,30.20,NNW,340,4.0,17.0,29,0.00,,---,0.00,VWS V14.01,2013-05-11 21:44:00,
2013-05-11 16:49:00,56.2,24.4,30.20,NW,318,17.0,18.0,29,0.00,,---,0.00,VWS V14.01,2013-05-11 21:49:00,
2013-05-11 16:54:00,56.0,24.2,30.20,West,263,3.0,19.0,29,0.00,,---,0.00,VWS V14.01,2013-05-11 21:54:00,
2013-05-11 16:59:00,55.9,24.9,30.20,West,269,7.0,13.0,30,0.00,,---,0.00,VWS V14.01,2013-05-11 21:59:00,
2013-05-11 17:00:00,56.0,25.0,30.20,WSW,240,8.0,22.0,30,0.00,,---,0.00,VWS V14.01,2013-05-11 22:00:00,
2013-05-11 17:04:00,56.1,25.9,30.20,North,5,0.0,14.0,31,0.00,,---,0.00,VWS V14.01,2013-05-11 22:04:00,
2013-05-11 17:09:00,56.3,24.5,30.19,WNW,288,3.0,16.0,29,0.00,,---,0.00,VWS V14.01,2013-05-11 22:09:00,
2013-05-11 17:15:00,56.1,24.3,30.20,NNW,327,4.0,19.0,29,0.00,,---,0.00,VWS V14.01,2013-05-11 22:15:00,
2013-05-11 17:20:00,56.2,23.5,30.20,WNW,290,7.0,19.0,28,0.00,,---,0.00,VWS V14.01,2013-05-11 22:20:00,
2013-05-11 17:25:00,55.9,23.3,30.20,NNW,328,4.0,20.0,28,0.00,,---,0.00,VWS V14.01,2013-05-11 22:25:00,
2013-05-11 17:30:00,55.9,23.3,30.20,WNW,290,2.0,9.0,28,0.00,,---,0.00,VWS V14.01,2013-05-11 22:30:00,
2013-05-11 17:35:00,55.9,22.4,30.20,North,349,6.0,22.0,27,0.00,,---,0.00,VWS V14.01,2013-05-11 22:35:00,
2013-05-11 17:40:00,55.9,23.3,30.20,WNW,285,2.0,22.0,28,0.00,,---,0.00,VWS V14.01,2013-05-11 22:40:00,
2013-05-11 17:45:00,55.8,23.2,30.20,WNW,290,4.0,22.0,28,0.00,,---,0.00,VWS V14.01,2013-05-11 22:45:00,
2013-05-11 17:50:00,56.0,24.2,30.21,West,274,5.0,22.0,29,0.00,,---,0.00,VWS V14.01,2013-05-11 22:50:00,
2013-05-11 17:55:00,55.9,22.4,30.21,NNE,18,2.0,22.0,27,0.00,,---,0.00,VWS V14.01,2013-05-11 22:55:00,
2013-05-11 18:00:00,56.0,22.5,30.21,NW,314,5.0,10.0,27,0.00,,---,0.00,VWS V14.01,2013-05-11 23:00:00,
2013-05-11 18:05:00,55.9,22.4,30.21,WNW,288,8.0,20.0,27,0.00,,---,0.00,VWS V14.01,2013-05-11 23:05:00,
2013-05-11 18:10:00,55.9,22.4,30.21,WNW,284,3.0,20.0,27,0.00,,---,0.00,VWS V14.01,2013-05-11 23:10:00,
2013-05-11 18:16:00,56.0,23.4,30.21,NNE,16,4.0,20.0,28,0.00,,---,0.00,VWS V14.01,2013-05-11 23:16:00,
2013-05-11 18:21:00,55.6,23.0,30.21,NW,316,6.0,20.0,28,0.00,,---,0.00,VWS V14.01,2013-05-11 23:21:00,
2013-05-11 18:26:00,55.6,23.0,30.21,WNW,297,7.0,20.0,28,0.00,,---,0.00,VWS V14.01,2013-05-11 23:26:00,
2013-05-11 18:30:00,55.5,23.0,30.21,WNW,283,5.0,20.0,28,0.00,,---,0.00,VWS V14.01,2013-05-11 23:30:00,
2013-05-11 18:31:00,55.5,23.0,30.21,NW,316,4.0,15.0,28,0.00,,---,0.00,VWS V14.01,2013-05-11 23:31:00,
2013-05-11 18:36:00,55.3,22.8,30.20,NNE,12,5.0,19.0,28,0.00,,---,0.00,VWS V14.01,2013-05-11 23:36:00,
2013-05-11 18:41:00,55.2,23.5,30.20,North,5,3.0,19.0,29,0.00,,---,0.00,VWS V14.01,2013-05-11 23:41:00,
2013-05-11 18:46:00,55.2,22.7,30.20,WNW,287,5.0,19.0,28,0.00,,---,0.00,VWS V14.01,2013-05-11 23:46:00,
2013-05-11 18:51:00,55.1,23.4,30.20,NNE,18,7.0,19.0,29,0.00,,---,0.00,VWS V14.01,2013-05-11 23:51:00,
2013-05-11 18:56:00,54.9,21.6,30.20,NNE,18,16.0,19.0,27,0.00,,---,0.00,VWS V14.01,2013-05-11 23:56:00,
2013-05-11 19:00:00,54.8,21.5,30.20,West,276,5.0,19.0,27,0.00,,---,0.00,VWS V14.01,2013-05-12 00:00:00,
2013-05-11 19:02:00,54.7,21.4,30.21,NW,308,8.0,14.0,27,0.00,,---,0.00,VWS V14.01,2013-05-12 00:02:00,
2013-05-11 19:07:00,54.7,22.3,30.20,NW,308,6.0,14.0,28,0.00,,---,0.00,VWS V14.01,2013-05-12 00:07:00,
2013-05-11 19:12:00,54.4,22.0,30.20,WNW,287,3.0,15.0,28,0.00,,---,0.00,VWS V14.01,2013-05-12 00:12:00,
2013-05-11 19:17:00,54.1,22.6,30.20,NNE,19,3.0,15.0,29,0.00,,---,0.00,VWS V14.01,2013-05-12 00:17:00,
2013-05-11 19:22:00,53.9,22.4,30.21,NW,318,4.0,15.0,29,0.00,,---,0.00,VWS V14.01,2013-05-12 00:22:00,
2013-05-11 19:27:00,53.7,22.2,30.21,WSW,250,4.0,15.0,29,0.00,,---,0.00,VWS V14.01,2013-05-12 00:27:00,
2013-05-11 19:30:00,53.6,22.1,30.21,West,281,7.0,15.0,29,0.00,,---,0.00,VWS V14.01,2013-05-12 00:30:00,
2013-05-11 19:32:00,53.4,22.8,30.21,NW,322,11.0,11.0,30,0.00,,---,0.00,VWS V14.01,2013-05-12 00:32:00,
2013-05-11 19:37:00,53.1,21.7,30.21,WNW,299,3.0,13.0,29,0.00,,---,0.00,VWS V14.01,2013-05-12 00:37:00,
2013-05-11 19:42:00,52.9,21.5,30.21,WNW,295,8.0,13.0,29,0.00,,---,0.00,VWS V14.01,2013-05-12 00:42:00,
2013-05-11 19:48:00,52.8,21.4,30.21,West,281,6.0,13.0,29,0.00,,---,0.00,VWS V14.01,2013-05-12 00:48:00,
2013-05-11 19:53:00,52.6,22.1,30.21,NNE,23,2.0,13.0,30,0.00,,---,0.00,VWS V14.01,2013-05-12 00:53:00,
2013-05-11 19:58:00,52.4,21.1,30.21,West,277,3.0,13.0,29,0.00,,---,0.00,VWS V14.01,2013-05-12 00:58:00,
2013-05-11 20:00:00,52.3,21.8,30.21,NW,308,4.0,13.0,30,0.00,,---,0.00,VWS V14.01,2013-05-12 01:00:00,
2013-05-11 20:03:00,52.1,21.6,30.21,WNW,302,1.0,8.0,30,0.00,,---,0.00,VWS V14.01,2013-05-12 01:03:00,
2013-05-11 20:08:00,51.9,21.5,30.21,NNW,348,0.0,8.0,30,0.00,,---,0.00,VWS V14.01,2013-05-12 01:08:00,
2013-05-11 20:13:00,51.7,22.1,30.21,WNW,299,1.0,11.0,31,0.00,,---,0.00,VWS V14.01,2013-05-12 01:13:00,
2013-05-11 20:18:00,51.4,21.8,30.21,WNW,300,2.0,11.0,31,0.00,,---,0.00,VWS V14.01,2013-05-12 01:18:00,
2013-05-11 20:23:00,51.2,21.6,30.21,West,265,1.0,11.0,31,0.00,,---,0.00,VWS V14.01,2013-05-12 01:23:00,
2013-05-11 20:28:00,50.9,22.8,30.21,WNW,285,1.0,11.0,33,0.00,,---,0.00,VWS V14.01,2013-05-12 01:28:00,
2013-05-11 20:30:00,50.8,22.8,30.21,WNW,285,0.0,11.0,33,0.00,,---,0.00,VWS V14.01,2013-05-12 01:30:00,
2013-05-11 20:34:00,50.5,22.5,30.22,WNW,298,2.0,5.0,33,0.00,,---,0.00,VWS V14.01,2013-05-12 01:34:00,
2013-05-11 20:39:00,50.4,22.4,30.22,West,281,2.0,6.0,33,0.00,,---,0.00,VWS V14.01,2013-05-12 01:39:00,
2013-05-11 20:44:00,50.1,22.8,30.22,West,266,2.0,6.0,34,0.00,,---,0.00,VWS V14.01,2013-05-12 01:44:00,
2013-05-11 20:49:00,50.0,22.8,30.22,NW,308,3.0,6.0,34,0.00,,---,0.00,VWS V14.01,2013-05-12 01:49:00,
2013-05-11 20:54:00,49.9,23.4,30.22,WNW,288,0.0,6.0,35,0.00,,---,0.00,VWS V14.01,2013-05-12 01:54:00,
2013-05-11 20:59:00,49.7,23.2,30.22,NW,313,4.0,6.0,35,0.00,,---,0.00,VWS V14.01,2013-05-12 01:59:00,
2013-05-11 21:00:00,49.7,23.2,30.22,NW,313,4.0,6.0,35,0.00,,---,0.00,VWS V14.01,2013-05-12 02:00:00,
2013-05-11 21:04:00,49.5,23.0,30.22,NW,308,5.0,5.0,35,0.00,,---,0.00,VWS V14.01,2013-05-12 02:04:00,
2013-05-11 21:09:00,49.4,23.6,30.22,WSW,242,2.0,6.0,36,0.00,,---,0.00,VWS V14.01,2013-05-12 02:09:00,
2013-05-11 21:14:00,49.3,23.5,30.22,NW,322,3.0,6.0,36,0.00,,---,0.00,VWS V14.01,2013-05-12 02:14:00,
2013-05-11 21:19:00,49.2,24.1,30.23,WNW,302,0.0,6.0,37,0.00,,---,0.00,VWS V14.01,2013-05-12 02:19:00,
2013-05-11 21:24:00,48.9,24.4,30.23,WSW,242,0.0,6.0,38,0.00,,---,0.00,VWS V14.01,2013-05-12 02:24:00,
2013-05-11 21:29:00,48.7,24.2,30.23,West,263,2.0,3.0,38,0.00,,---,0.00,VWS V14.01,2013-05-12 02:29:00,
2013-05-11 21:30:00,48.7,23.6,30.23,NW,313,1.0,7.0,37,0.00,,---,0.00,VWS V14.01,2013-05-12 02:30:00,
2013-05-11 21:35:00,48.6,24.2,30.23,WSW,255,1.0,5.0,38,0.00,,---,0.00,VWS V14.01,2013-05-12 02:35:00,
2013-05-11 21:40:00,48.4,24.0,30.23,NW,313,1.0,6.0,38,0.00,,---,0.00,VWS V14.01,2013-05-12 02:40:00,
2013-05-11 21:45:00,48.3,23.9,30.23,NW,316,0.0,6.0,38,0.00,,---,0.00,VWS V14.01,2013-05-12 02:45:00,
2013-05-11 21:50:00,48.1,23.7,30.24,NNW,346,3.0,9.0,38,0.00,,---,0.00,VWS V14.01,2013-05-12 02:50:00,
2013-05-11 21:55:00,47.9,24.1,30.24,NNW,348,1.0,9.0,39,0.00,,---,0.00,VWS V14.01,2013-05-12 02:55:00,
2013-05-11 22:00:00,47.7,24.0,30.24,NW,319,2.0,3.0,39,0.00,,---,0.00,VWS V14.01,2013-05-12 03:00:00,
2013-05-11 22:05:00,47.4,24.3,30.24,WNW,298,0.0,3.0,40,0.00,,---,0.00,VWS V14.01,2013-05-12 03:05:00,
2013-05-11 22:10:00,47.2,24.1,30.24,North,8,2.0,4.0,40,0.00,,---,0.00,VWS V14.01,2013-05-12 03:10:00,
2013-05-11 22:15:00,47.1,24.0,30.24,NW,315,2.0,4.0,40,0.00,,---,0.00,VWS V14.01,2013-05-12 03:15:00,
2013-05-11 22:20:00,46.9,23.9,30.24,NNW,340,1.0,4.0,40,0.00,,---,0.00,VWS V14.01,2013-05-12 03:20:00,
2013-05-11 22:26:00,46.9,23.9,30.24,WNW,291,3.0,6.0,40,0.00,,---,0.00,VWS V14.01,2013-05-12 03:26:00,
2013-05-11 22:30:00,46.9,23.9,30.24,NW,324,1.0,6.0,40,0.00,,---,0.00,VWS V14.01,2013-05-12 03:30:00,
2013-05-11 22:31:00,46.8,23.8,30.24,North,11,1.0,2.0,40,0.00,,---,0.00,VWS V14.01,2013-05-12 03:31:00,
2013-05-11 22:36:00,46.6,24.2,30.25,NW,319,1.0,2.0,41,0.00,,---,0.00,VWS V14.01,2013-05-12 03:36:00,
2013-05-11 22:41:00,46.3,24.5,30.25,WNW,293,1.0,2.0,42,0.00,,---,0.00,VWS V14.01,2013-05-12 03:41:00,
2013-05-11 22:46:00,46.2,24.4,30.25,WSW,257,0.0,2.0,42,0.00,,---,0.00,VWS V14.01,2013-05-12 03:46:00,
2013-05-11 22:51:00,45.9,24.1,30.25,WNW,288,1.0,2.0,42,0.00,,---,0.00,VWS V14.01,2013-05-12 03:51:00,
2013-05-11 22:56:00,45.9,24.1,30.25,NW,315,2.0,5.0,42,0.00,,---,0.00,VWS V14.01,2013-05-12 03:56:00,
2013-05-11 23:00:00,45.9,24.1,30.25,WNW,295,0.0,5.0,42,0.00,,---,0.00,VWS V14.01,2013-05-12 04:00:00,
2013-05-11 23:01:00,45.9,24.1,30.24,WNW,298,0.0,5.0,42,0.00,,---,0.00,VWS V14.01,2013-05-12 04:01:00,
2013-05-11 23:02:00,45.9,24.1,30.25,NW,305,2.0,5.0,42,0.00,,---,0.00,VWS V14.01,2013-05-12 04:02:00,
2013-05-11 23:03:00,45.9,24.1,30.24,WNW,293,1.0,5.0,42,0.00,,---,0.00,VWS V14.01,2013-05-12 04:03:00,
2013-05-11 23:08:00,45.9,24.1,30.24,West,281,2.0,6.0,42,0.00,,---,0.00,VWS V14.01,2013-05-12 04:08:00,
2013-05-11 23:13:00,45.8,24.6,30.24,WNW,290,1.0,6.0,43,0.00,,---,0.00,VWS V14.01,2013-05-12 04:13:00,
2013-05-11 23:18:00,45.6,24.4,30.24,WNW,288,1.0,6.0,43,0.00,,---,0.00,VWS V14.01,2013-05-12 04:18:00,
2013-05-11 23:23:00,45.4,24.2,30.24,WNW,285,2.0,6.0,43,0.00,,---,0.00,VWS V14.01,2013-05-12 04:23:00,
2013-05-11 23:28:00,45.3,24.1,30.24,West,274,0.0,6.0,43,0.00,,---,0.00,VWS V14.01,2013-05-12 04:28:00,
2013-05-11 23:30:00,45.3,24.7,30.24,West,274,0.0,6.0,44,0.00,,---,0.00,VWS V14.01,2013-05-12 04:30:00,
2013-05-11 23:33:00,45.1,24.0,30.24,NW,326,0.0,2.0,43,0.00,,---,0.00,VWS V14.01,2013-05-12 04:33:00,
2013-05-11 23:38:00,45.1,24.0,30.24,WNW,292,0.0,3.0,43,0.00,,---,0.00,VWS V14.01,2013-05-12 04:38:00,
2013-05-11 23:44:00,45.1,24.0,30.24,West,269,0.0,3.0,43,0.00,,---,0.00,VWS V14.01,2013-05-12 04:44:00,
2013-05-11 23:49:00,45.1,24.5,30.24,West,278,0.0,3.0,44,0.00,,---,0.00,VWS V14.01,2013-05-12 04:49:00,
2013-05-11 23:54:00,45.0,23.9,30.24,West,274,1.0,3.0,43,0.00,,---,0.00,VWS V14.01,2013-05-12 04:54:00,
2013-05-11 23:59:00,45.0,23.9,30.24,West,280,0.0,3.0,43,0.00,,---,0.00,VWS V14.01,2013-05-12 04:59:00,